EIN40G EIDW-LIRF

Flight info

Callsign EIN40G
Flight time N/A
Altitude 37000
Route PESIT2J PESIT DCT BAKUR DCT GUBJE DCT DAVAZ DCT AVZAC DCT ICOSA DCT RUHUN DCT UNZIB DCT NUCHU DCT BOGNA UL612 OGULO DCT OKASI DCT OKEKO DCT MOU DCT MADIV DCT MOKIP DCT TUFTA DCT KOGAS DCT MEDAM DCT NITAM DCT MOGBO DCT ELB/N0424F380 DCT ELKAP
Aircraft A21N/M-SDE2E3FGHIJ1RWXY/LB1

Departure

Time N/A
Airport Dublin Airport (EIDW)

Arrival

Time 2026-05-04 18:13
Airport Rome–Fiumicino Leonardo da Vinci International Airport (LIRF)
Time Latitude Longitude Altitude Speed Heading
2026-05-04 17:03 46.87087 3.53274 36934 ft 422 kts 161°
2026-05-04 17:03 46.81063 3.56920 36922 ft 421 kts 161°
2026-05-04 17:04 46.75369 3.61742 36924 ft 432 kts 145°
2026-05-04 17:04 46.70830 3.69096 36943 ft 443 kts 128°
2026-05-04 17:05 46.68066 3.78202 36947 ft 458 kts 110°
2026-05-04 17:05 46.66444 3.87932 36947 ft 460 kts 108°
2026-05-04 17:06 46.63931 4.02812 36950 ft 460 kts 109°
2026-05-04 17:07 46.61680 4.15734 36947 ft 460 kts 109°
2026-05-04 17:07 46.59636 4.27385 36954 ft 461 kts 109°
2026-05-04 17:08 46.56969 4.42492 36987 ft 463 kts 110°
2026-05-04 17:09 46.55189 4.52510 36963 ft 464 kts 109°
2026-05-04 17:09 46.53359 4.62752 36966 ft 463 kts 109°
2026-05-04 17:10 46.48930 4.87300 36977 ft 463 kts 110°
2026-05-04 17:11 46.47105 4.97305 36966 ft 463 kts 110°
2026-05-04 17:12 46.44358 5.12276 36967 ft 465 kts 110°
2026-05-04 17:13 46.39214 5.37470 36979 ft 459 kts 119°
2026-05-04 17:14 46.33929 5.50350 36980 ft 449 kts 133°
2026-05-04 17:14 46.31810 5.54054 36988 ft 447 kts 136°
2026-05-04 17:15 46.25088 5.65350 36990 ft 448 kts 136°
2026-05-04 17:16 46.16698 5.79468 36983 ft 449 kts 136°
2026-05-04 17:17 46.07853 5.94294 36989 ft 450 kts 136°
2026-05-04 17:18 45.98852 6.09304 36987 ft 452 kts 136°
2026-05-04 17:19 45.89705 6.24477 37033 ft 453 kts 136°
2026-05-04 17:20 45.80707 6.38556 37047 ft 449 kts 143°
2026-05-04 17:20 45.72854 6.47255 37048 ft 444 kts 150°
2026-05-04 17:21 45.62246 6.58009 37062 ft 444 kts 149°
2026-05-04 17:22 45.56850 6.63473 37058 ft 445 kts 149°
2026-05-04 17:23 45.46377 6.74041 37072 ft 445 kts 150°
2026-05-04 17:24 45.38332 6.82127 37084 ft 445 kts 150°
2026-05-04 17:25 45.27748 6.92838 37092 ft 448 kts 147°
2026-05-04 17:26 45.18166 7.05415 37118 ft 453 kts 141°
2026-05-04 17:27 45.07138 7.22719 37080 ft 461 kts 130°
2026-05-04 17:28 44.99410 7.38195 37124 ft 461 kts 132°
2026-05-04 17:29 44.85909 7.57966 37101 ft 457 kts 140°
2026-05-04 17:31 44.74501 7.73817 37078 ft 458 kts 141°
2026-05-04 17:32 44.62779 7.90017 37075 ft 460 kts 141°
2026-05-04 17:33 44.53231 8.03138 37065 ft 461 kts 141°
2026-05-04 17:34 44.43412 8.16571 37067 ft 461 kts 141°
2026-05-04 17:35 44.31329 8.33009 37069 ft 463 kts 141°
2026-05-04 17:36 44.25932 8.40320 37069 ft 463 kts 141°
2026-05-04 17:36 44.20434 8.47746 37068 ft 465 kts 141°
2026-05-04 17:37 44.14922 8.55170 37065 ft 465 kts 141°
2026-05-04 17:37 44.09361 8.62638 37063 ft 466 kts 141°
2026-05-04 17:38 44.03844 8.70030 37064 ft 466 kts 142°
2026-05-04 17:38 43.98374 8.77340 37061 ft 465 kts 142°
2026-05-04 17:39 43.89968 8.88530 37058 ft 467 kts 142°
2026-05-04 17:39 43.84534 8.95742 37058 ft 467 kts 142°
2026-05-04 17:40 43.79036 9.03017 37059 ft 468 kts 142°
2026-05-04 17:40 43.73373 9.10491 37056 ft 468 kts 142°
2026-05-04 17:41 43.67736 9.17909 37054 ft 468 kts 142°
2026-05-04 17:41 43.62094 9.25317 37061 ft 469 kts 142°
2026-05-04 17:42 43.56432 9.32731 37060 ft 469 kts 142°
2026-05-04 17:42 43.50767 9.40122 37061 ft 469 kts 142°
2026-05-04 17:43 43.45076 9.47531 37052 ft 469 kts 142°
2026-05-04 17:43 43.39415 9.54881 37046 ft 471 kts 142°
2026-05-04 17:44 43.33971 9.61931 37047 ft 471 kts 142°
2026-05-04 17:44 43.31187 9.65532 37292 ft 472 kts 142°
2026-05-04 17:44 43.28377 9.69162 37112 ft 469 kts 142°
2026-05-04 17:45 43.22717 9.76448 37062 ft 470 kts 142°
2026-05-04 17:45 43.17299 9.83410 37058 ft 471 kts 142°
2026-05-04 17:46 43.11534 9.90799 37061 ft 471 kts 142°
2026-05-04 17:46 43.05759 9.98177 37058 ft 471 kts 142°
2026-05-04 17:47 43.00182 10.05287 37067 ft 471 kts 142°
2026-05-04 17:47 42.94566 10.12425 37067 ft 472 kts 142°
2026-05-04 17:48 42.89225 10.19200 37059 ft 473 kts 142°
2026-05-04 17:48 42.83453 10.26504 37060 ft 474 kts 142°
2026-05-04 17:49 42.77925 10.33477 37059 ft 473 kts 142°
2026-05-04 17:49 42.73218 10.41564 37051 ft 485 kts 111°
2026-05-04 17:50 42.72533 10.47016 37092 ft 492 kts 93°
2026-05-04 17:50 42.72416 10.52637 37091 ft 493 kts 91°
2026-05-04 17:50 42.72160 10.63311 37092 ft 494 kts 93°
2026-05-04 17:51 42.71722 10.74307 37099 ft 494 kts 94°
2026-05-04 17:51 42.71249 10.85593 37103 ft 494 kts 94°
2026-05-04 17:52 42.70763 10.96816 37105 ft 494 kts 94°
2026-05-04 17:52 42.70240 11.08239 37096 ft 495 kts 94°
2026-05-04 17:53 42.69706 11.19502 37093 ft 495 kts 93°
2026-05-04 17:53 42.69167 11.30774 37096 ft 495 kts 94°
2026-05-04 17:54 42.68622 11.42022 37097 ft 494 kts 93°
2026-05-04 17:54 42.68061 11.53221 37099 ft 494 kts 94°
2026-05-04 17:55 42.67476 11.64494 37101 ft 495 kts 93°
2026-05-04 17:55 42.66912 11.75367 37105 ft 494 kts 94°
2026-05-04 17:56 42.66327 11.86313 37111 ft 495 kts 94°
2026-05-04 17:56 42.65720 11.97505 37110 ft 495 kts 94°
2026-05-04 17:57 42.65093 12.08711 37108 ft 494 kts 94°
2026-05-04 17:57 42.64773 12.14340 36968 ft 489 kts 94°
2026-05-04 17:57 42.64464 12.19761 35846 ft 486 kts 94°
2026-05-04 17:58 42.64187 12.24694 33987 ft 496 kts 94°
2026-05-04 17:58 42.63902 12.29832 32051 ft 506 kts 94°
2026-05-04 17:58 42.63574 12.35582 30480 ft 500 kts 94°
2026-05-04 17:58 42.63239 12.41205 29558 ft 491 kts 94°
2026-05-04 17:59 42.62913 12.46676 29008 ft 481 kts 94°
2026-05-04 17:59 42.62589 12.52124 28426 ft 474 kts 94°
2026-05-04 17:59 42.60337 12.61792 26995 ft 437 kts 133°
2026-05-04 18:00 42.57572 12.64647 25917 ft 416 kts 159°
2026-05-04 18:00 42.54443 12.65816 24864 ft 399 kts 178°
2026-05-04 18:00 42.51240 12.65697 23797 ft 383 kts 193°
2026-05-04 18:00 42.48264 12.64371 22679 ft 372 kts 209°
2026-05-04 18:01 42.45870 12.62145 21651 ft 362 kts 225°
2026-05-04 18:01 42.44038 12.59310 20672 ft 353 kts 234°
2026-05-04 18:01 42.42371 12.56363 19694 ft 347 kts 234°
2026-05-04 18:02 42.39040 12.50500 17712 ft 334 kts 234°
2026-05-04 18:02 42.37407 12.47663 16733 ft 329 kts 234°
2026-05-04 18:02 42.35800 12.44887 15774 ft 323 kts 234°
2026-05-04 18:02 42.34192 12.42122 15171 ft 305 kts 234°
2026-05-04 18:03 42.32638 12.39455 14472 ft 294 kts 234°
2026-05-04 18:03 42.31182 12.36956 13645 ft 290 kts 234°
2026-05-04 18:03 42.29752 12.34499 12804 ft 287 kts 233°
2026-05-04 18:03 42.28316 12.32036 11965 ft 284 kts 232°
2026-05-04 18:04 42.26873 12.29564 11104 ft 281 kts 231°
2026-05-04 18:04 42.25417 12.27071 10226 ft 278 kts 231°
2026-05-04 18:04 42.22591 12.22256 8550 ft 273 kts 230°
2026-05-04 18:05 42.21191 12.19874 7714 ft 270 kts 230°
2026-05-04 18:05 42.19819 12.17538 6892 ft 267 kts 229°
2026-05-04 18:05 42.18453 12.15213 6086 ft 263 kts 229°
2026-05-04 18:05 42.17097 12.12916 5283 ft 260 kts 229°
2026-05-04 18:06 42.14437 12.08409 3889 ft 244 kts 229°
2026-05-04 18:06 42.13184 12.06356 3479 ft 229 kts 221°
2026-05-04 18:06 42.11498 12.05438 2821 ft 222 kts 174°
2026-05-04 18:07 42.09904 12.06564 2490 ft 215 kts 134°
2026-05-04 18:07 42.08749 12.08429 2490 ft 215 kts 133°
2026-05-04 18:07 42.07571 12.10239 2488 ft 215 kts 133°
2026-05-04 18:07 42.06347 12.12062 2484 ft 214 kts 134°
2026-05-04 18:08 42.05156 12.13818 2481 ft 214 kts 134°
2026-05-04 18:08 42.03952 12.15590 2474 ft 204 kts 134°
2026-05-04 18:08 42.02831 12.17241 2481 ft 200 kts 134°
2026-05-04 18:08 42.01582 12.18662 2486 ft 199 kts 150°
2026-05-04 18:09 41.98694 12.20259 2572 ft 169 kts 163°
2026-05-04 18:09 41.96328 12.21252 2426 ft 139 kts 163°
2026-05-04 18:10 41.95246 12.21701 2181 ft 135 kts 163°
2026-05-04 18:10 41.94197 12.22138 1956 ft 134 kts 163°
2026-05-04 18:10 41.93169 12.22565 1742 ft 133 kts 164°
2026-05-04 18:10 41.92134 12.22994 1531 ft 133 kts 164°
2026-05-04 18:11 41.91104 12.23425 1328 ft 132 kts 164°
2026-05-04 18:11 41.90111 12.23842 1139 ft 132 kts 164°
2026-05-04 18:11 41.89117 12.24262 949 ft 131 kts 164°
2026-05-04 18:11 41.88124 12.24650 732 ft 133 kts 165°
2026-05-04 18:12 41.87138 12.25086 513 ft 135 kts 162°
2026-05-04 18:12 41.86175 12.25494 333 ft 134 kts 163°
2026-05-04 18:12 41.85163 12.25915 164 ft 132 kts 163°
2026-05-04 18:12 41.84169 12.26336 16 ft 131 kts 163°
2026-05-04 18:13 41.83326 12.26686 10 ft 81 kts 165°
2026-05-04 18:13 41.82938 12.26837 10 ft 28 kts 166°
2026-05-04 18:13 41.82521 12.26829 10 ft 23 kts 196°
2026-05-04 18:14 41.82342 12.26787 7 ft 23 kts 174°
2026-05-04 18:14 41.82165 12.26847 7 ft 22 kts 162°
2026-05-04 18:14 41.82001 12.26913 10 ft 20 kts 164°